Mojave, CA

8:51 AM PDT on July 21, 2017 (GMT -0700)
Mojave

Weather History for KMHV - August, 2014

Change the Weather History Date:

Friday, August 8, 2014

  Actual Average Record
Temperature  
Mean Temperature 84 °F -  
Max Temperature 95 °F 99 °F 107 °F (1981)
Min Temperature 73 °F 70 °F 60 °F (1977)
Cooling Degree Days 19    
Growing Degree Days 34 (Base 50)    
Moisture  
Dew Point 45 °F    
Average Humidity 26    
Maximum Humidity 47    
Minimum Humidity 9    
Precipitation  
Precipitation 0.00 in - - ()
Sea Level Pressure  
Sea Level Pressure 29.95 in    
Wind  
Wind Speed 12 mph (West)    
Max Wind Speed 22 mph    
Max Gust Speed 28 mph    
Visibility 10 miles    
Events      
Averages and records for this station are not official NWS values.
T = Trace of Precipitation, MM = Missing Value Source: NWS Daily Summary

Daily Weather History Graph

Daily Weather History Graph

Search for Another Location

Airport or City:

Trip Planner

Search our weather history database for the weather conditions in past years. The results will help you decide how hot, cold, wet, or windy it might be!

Date:

Astronomy

Aug. 08, 2014 Rise Set
Actual Time 6:07 AM PDT 7:48 PM PDT
Civil Twilight 5:39 AM PDT 8:15 PM PDT
Nautical Twilight 5:07 AM PDT 8:48 PM PDT
Astronomical Twilight 4:32 AM PDT 9:23 PM PDT
Moon 6:03 PM PDT (8/8) 3:46 AM PDT (8/8)
Length of Visible Light 14h 35m
Length of Day
13h 41m
Waxing Gibbous, 94% of the Moon is Illuminated
Aug 8
Waxing Gibbous
Aug 10
Full
Aug 17
Last Quarter
Aug 25
New
Sep 2
First Quarter

Hourly Weather History & Observations

Time (PDT) Temp. Dew Point Humidity Pressure Visibility Wind Dir Wind Speed Gust Speed Precip Events Conditions
12:15 AM 78.8 °F 48.2 °F 34% 29.95 in 10.0 mi West 19.6 mph 25.3 mph N/A   Clear
12:35 AM 78.8 °F 50.0 °F 36% 29.95 in 10.0 mi West 21.9 mph 25.3 mph N/A   Clear
12:45 AM 78.8 °F 50.0 °F 36% 29.95 in 10.0 mi West 20.7 mph 27.6 mph N/A   Clear
3:35 AM 77.0 °F 51.8 °F 41% 29.96 in 10.0 mi WNW 17.3 mph - N/A   Clear
3:55 AM 75.2 °F 51.8 °F 44% 29.96 in 10.0 mi WNW 13.8 mph - N/A   Clear
4:15 AM 75.2 °F 53.6 °F 47% 29.96 in 10.0 mi WNW 15.0 mph - N/A   Clear
4:35 AM 75.2 °F 53.6 °F 47% 29.96 in 10.0 mi WNW 12.7 mph - N/A   Clear
4:55 AM 75.2 °F 53.6 °F 47% 29.96 in 10.0 mi WNW 12.7 mph - N/A   Clear
5:00 AM 75.2 °F 53.6 °F 47% 29.96 in 10.0 mi WNW 15.0 mph - N/A   Clear
5:55 AM 75.2 °F 53.6 °F 47% 29.97 in 10.0 mi North 3.5 mph - N/A   Clear
6:10 AM 73.4 °F 50.0 °F 44% 29.97 in 10.0 mi NNE 3.5 mph - N/A   Clear
7:35 AM 75.2 °F 48.2 °F 38% 29.98 in 10.0 mi NE 3.5 mph - N/A   Clear
7:55 AM 75.2 °F 48.2 °F 38% 29.98 in 10.0 mi East 3.5 mph - N/A   Clear
8:15 AM 77.0 °F 50.0 °F 39% 29.99 in 10.0 mi East 3.5 mph - N/A   Clear
8:35 AM 78.8 °F 50.0 °F 36% 29.99 in 10.0 mi Calm Calm - N/A   Clear
8:55 AM 80.6 °F 50.0 °F 34% 29.99 in 10.0 mi East 3.5 mph - N/A   Clear
9:35 AM 82.4 °F 50.0 °F 32% 30.00 in 10.0 mi ENE 4.6 mph - N/A   Clear
9:55 AM 82.4 °F 50.0 °F 32% 30.00 in 10.0 mi East 5.8 mph - N/A   Clear
10:15 AM 84.2 °F 50.0 °F 30% 30.00 in 10.0 mi NE 4.6 mph - N/A   Clear
10:35 AM 86.0 °F 48.2 °F 27% 30.00 in 10.0 mi SE 5.8 mph - N/A   Clear
10:55 AM 86.0 °F 48.2 °F 27% 30.00 in 10.0 mi SE 8.1 mph - N/A   Clear
11:15 AM 86.0 °F 48.2 °F 27% 30.00 in 10.0 mi ENE 5.8 mph - N/A   Clear
11:35 AM 87.8 °F 48.2 °F 25% 30.00 in 10.0 mi ESE 4.6 mph - N/A   Clear
11:55 AM 89.6 °F 46.4 °F 22% 30.00 in 10.0 mi SSE 4.6 mph - N/A   Clear
12:15 PM 89.6 °F 44.6 °F 21% 30.00 in 10.0 mi Calm Calm - N/A   Clear
12:35 PM 89.6 °F 44.6 °F 21% 29.99 in 10.0 mi SE 3.5 mph - N/A   Clear
12:55 PM 91.4 °F 41.0 °F 17% 29.99 in 10.0 mi Calm Calm - N/A   Clear
1:15 PM 91.4 °F 39.2 °F 16% 29.98 in 10.0 mi SW 3.5 mph - N/A   Clear
1:35 PM 91.4 °F 37.4 °F 15% 29.98 in 10.0 mi South 10.4 mph - N/A   Clear
1:55 PM 93.2 °F 35.6 °F 13% 29.97 in 10.0 mi NE 3.5 mph - N/A   Clear
2:15 PM 93.2 °F 32.0 °F 11% 29.96 in 10.0 mi ENE 3.5 mph - N/A   Clear
2:35 PM 93.2 °F 32.0 °F 11% 29.96 in 10.0 mi East 6.9 mph - N/A   Clear
2:55 PM 95.0 °F 32.0 °F 11% 29.95 in 10.0 mi SE 6.9 mph - N/A   Clear
3:15 PM 95.0 °F 32.0 °F 11% 29.94 in 10.0 mi SE 9.2 mph - N/A   Clear
3:35 PM 93.2 °F 33.8 °F 12% 29.93 in 10.0 mi Calm Calm - N/A   Clear
3:55 PM 95.0 °F 33.8 °F 12% 29.92 in 10.0 mi East 5.8 mph - N/A   Clear
4:15 PM 95.0 °F 32.0 °F 11% 29.92 in 10.0 mi South 6.9 mph - N/A   Clear
4:35 PM 95.0 °F 32.0 °F 11% 29.92 in 10.0 mi Calm Calm - N/A   Clear
4:55 PM 95.0 °F 28.4 °F 9% 29.91 in 10.0 mi SW 6.9 mph - N/A   Clear
5:15 PM 95.0 °F 33.8 °F 12% 29.91 in 10.0 mi SW 8.1 mph 16.1 mph N/A   Clear
5:35 PM 95.0 °F 33.8 °F 12% 29.90 in 10.0 mi SSW 18.4 mph - N/A   Clear
5:55 PM 93.2 °F 32.0 °F 11% 29.91 in 10.0 mi SSW 19.6 mph 24.2 mph N/A   Clear
6:15 PM 93.2 °F 33.8 °F 12% 29.91 in 10.0 mi SSW 16.1 mph 23.0 mph N/A   Clear
6:35 PM 93.2 °F 35.6 °F 13% 29.91 in 10.0 mi SSW 13.8 mph - N/A   Clear
6:55 PM 91.4 °F 50.0 °F 24% 29.91 in 10.0 mi West 17.3 mph - N/A   Clear
7:15 PM 89.6 °F 50.0 °F 26% 29.92 in 10.0 mi West 16.1 mph - N/A   Clear
7:35 PM 89.6 °F 50.0 °F 26% 29.92 in 10.0 mi West 17.3 mph - N/A   Clear
7:55 PM 87.8 °F 50.0 °F 27% 29.92 in 10.0 mi West 19.6 mph - N/A   Clear
8:15 PM 86.0 °F 50.0 °F 29% 29.93 in 10.0 mi West 16.1 mph 24.2 mph N/A   Clear
8:55 PM 84.2 °F 50.0 °F 30% 29.93 in 10.0 mi WNW 18.4 mph - N/A   Clear
9:15 PM 84.2 °F 50.0 °F 30% 29.94 in 10.0 mi WNW 16.1 mph 24.2 mph N/A   Clear
9:35 PM 84.2 °F 48.2 °F 29% 29.94 in 10.0 mi West 18.4 mph 27.6 mph N/A   Clear
9:55 PM 84.2 °F 48.2 °F 29% 29.94 in 10.0 mi WNW 16.1 mph 24.2 mph N/A   Clear
10:35 PM 84.2 °F 48.2 °F 29% 29.94 in 10.0 mi WNW 17.3 mph 24.2 mph N/A   Clear
10:55 PM 82.4 °F 48.2 °F 30% 29.94 in 10.0 mi WNW 21.9 mph 26.5 mph N/A   Clear
11:15 PM 82.4 °F 48.2 °F 30% 29.94 in 10.0 mi West 19.6 mph - N/A   Clear
11:35 PM 82.4 °F 46.4 °F 28% 29.94 in 10.0 mi WNW 18.4 mph 27.6 mph N/A   Clear
11:55 PM 82.4 °F 46.4 °F 28% 29.94 in 10.0 mi WNW 20.7 mph 25.3 mph N/A   Clear